Overview Statistics Trail Chart Weather Telemetry Raw packets
 

This is the latest recevied weather packets stored in our database for station/object DL8BGD. If no packets are shown the sender has not sent any weather packets the latest 10 day(s).

<< 1 2 3 4 5 6 7 >>
Time Temp. Humidity Pressure Rain* Wind** Luminosity Snow
1788540023 27.22° C 36% 1019 hPa 0 mm - - -
1788538822 27.22° C 33% 1018.7 hPa 0 mm - - -
1788538235 28.33° C 34% 1018.7 hPa 0 mm - - -
1788537747 28.89° C 33% 1018.6 hPa 0 mm - - -
1788537622 28.89° C 33% 1018.6 hPa 0 mm - - -
1788537021 29.44° C 29% 1018.7 hPa 0 mm - - -
1788536421 30° C 27% 1018.9 hPa 0 mm - - -
1788535821 30.56° C 27% 1018.9 hPa 0 mm - - -
1788535222 31.11° C 24% 1019 hPa 0 mm - - -
1788534620 31.11° C 18% 1019.1 hPa 0 mm - - -
1788534020 31.11° C 17% 1019.2 hPa 0 mm - - -
1788533419 31.11° C 16% 1019.3 hPa 0 mm - - -
1788532819 31.11° C 16% 1019.5 hPa 0 mm - - -
1788532218 31.11° C 20% 1019.5 hPa 0 mm - - -
1788531618 31.11° C 18% 1019.8 hPa 0 mm - - -
1788531018 31.11° C 17% 1019.9 hPa 0 mm - - -
1788530417 31.11° C 18% 1020.2 hPa 0 mm - - -
1788529817 31.11° C 18% 1020.3 hPa 0 mm - - -
1788529217 31.11° C 18% 1020.4 hPa 0 mm - - -
1788528616 31.11° C 18% 1020.6 hPa 0 mm - - -
1788528018 31.11° C 22% 1020.8 hPa 0 mm - - -
1788527416 31.11° C 23% 1020.8 hPa 0 mm - - -
1788526815 31.11° C 17% 1021 hPa 0 mm - - -
1788526215 31.11° C 18% 1021.1 hPa 0 mm - - -
1788525614 31.11° C 19% 1021.2 hPa 0 mm - - -

* Rain since midnight (hover to see other rain measurements)
** Current wind speed in m/s (hover to see current wind gust speed)